Zurück zum Katalog

SL-12 R/B

AUX MOTOR

AktivHEO
NORAD 14278·ROCKET BODY·🇷🇺 Russia

Gestartet Aug 10, 1983 von Baikonur Cosmodrome

Loading…

Nächste Überflüge (nächste 24 Stunden)

TLE

AktuellSource: Space-Track

Epoche: Sep 14, 2026, 05:46 UTC

1 14278U 83084H   26257.24095842  .00005568  00000-0  11247-2 0  9992
2 14278  52.0954 357.8636 5249696 348.1366   3.1854  5.20098004739849

Verfolge SL-12 R/B in Echtzeit mit AllMySat

Download on the App Store